TJS-7 (49115 NORAD) Tracking and Keplerian Element Data

This shows tracking and keplerian element data for the satellite.

Feedback or suggestion? Click here.




ElementValue
Catalog49115
NameTJS-7
Epoch Orbit83
Epoch Day300.62088505
Epoch Year2021
RAAN274.9414
Inclination0.8706
Eccentricity0.0001986
Argument of Perigee305.3515
Mean Anonmoly185.9504
Mean Motion1.00274961
Decay Rate-2.23E-06
L11 49115U 21077A 21300.62088505 -.00000223 00000-0 00000+0 0 9994
L22 49115 0.8706 274.9414 0001986 305.3515 185.9504 1.00274961 833

Live tracking and technical data element details for TJS-7 (NORAD 49115). TJS-7 can be tracked NOW for your location showing map with azimuth and elevation plus other details from your city location.

Track the satellite on the map from your city or location and see movement details for azimuth, elevation, latitude, longitude, range, height, and movement on the map or in text.







IsCatalogInMostPopularTable: catalog: 49115, numindb: 18
Update: records affected: 1



GetName: 49115 TJS-7

Hit Count: updated at: Thu, 28 Oct 2021 12:26:36 GMT